Torna al catalogo

ARIANE 1 DEB

LostHEO
NORAD 48346·DEBRIS·🇫🇷 France

Lanciato Oct 19, 1983 da Guiana Space Centre

Loading…

Prossimi Passaggi (prossime 24 ore)

TLE

ObsoletoSource: Space-Track

Epoca: Mar 25, 2025, 07:29 UTC

1 48346U 83105C   25084.31200152  .00001106  00000-0  41815-2 0  9994
2 48346   8.2419 197.1948 5888147 142.7479 214.1896  3.97818702164350

Traccia ARIANE 1 DEB in tempo reale con AllMySat

Download on the App Store